Wind From: 13-12-2017 10:08 Until: 14-12-2017 06:00 warning for: Wind Level: Yellow info button

Although rather usual in this region, locally or potentially dangerous phenomena are expected. (such as local winds, summer thunderstorms, rising streams or high waves) Be aware and pay attention to the latest weather updates, especially if you carry out activities exposed to weather or close to a stream or shoreline. 


Meteo18 Weather Cam more information Meteo18 Weather Cam


Thunder radar more information blitzortung!


Rain radar more information rain snow radar


Visit our other weather sites:

Template documentation
and downloads

And another site



Weather Underground History page Text

Daily Summary for February 22, 2017 Units:  English    Metric   Both
« Previous Day
Next Day »
Daily Weekly Monthly Yearly Custom
  High: Low: Average:
Temperature: 49.6 °F 46 °F 47.8 °F
Dew Point: 47.1 °F 43.2 °F 44.6 °F
Humidity: 95 % 83 % 89 %
Wind Speed: 12 mph 1 mph 5.8 mph
Wind Gust: 20 mph - -
Wind:- - SW
Pressure: 30.2 in 30.1 in -
Precipitation: 0 in    
Historical Graphs
 
 
Tabular Data for February 22, 2017
Time Temperature Dew Point Pressure Wind Wind Speed Wind Gust Humidity Rainfall Rate (Hourly)
00:02 48.7 °F 47.1 °F 30.2 in WSW 3 mph 10 mph 94 % 0 in
00:12 48.7 °F 47.1 °F 30.2 in WSW 2 mph 10 mph 94 % 0 in
00:17 48.7 °F 47.1 °F 30.2 in WSW 10 mph 10 mph 94 % 0 in
00:22 48.7 °F 47.1 °F 30.2 in West 4 mph 10 mph 94 % 0 in
00:27 48.7 °F 47.1 °F 30.2 in West 4 mph 10 mph 94 % 0 in
00:32 48.7 °F 47.1 °F 30.2 in SW 6 mph 12 mph 94 % 0 in
00:37 48.7 °F 46.8 °F 30.2 in WSW 6 mph 12 mph 93 % 0 in
00:42 48.7 °F 47.1 °F 30.2 in WSW 4 mph 12 mph 94 % 0 in
00:47 48.7 °F 47.1 °F 30.2 in SW 4 mph 10 mph 94 % 0 in
00:52 48.7 °F 47.1 °F 30.2 in SW 2 mph 10 mph 94 % 0 in
01:02 48.6 °F 46.9 °F 30.2 in West 3 mph 7 mph 94 % 0 in
01:07 48.6 °F 46.9 °F 30.2 in SW 6 mph 8 mph 94 % 0 in
01:12 48.6 °F 46.9 °F 30.2 in West 6 mph 8 mph 94 % 0 in
01:17 48.6 °F 46.6 °F 30.2 in WSW 7 mph 11 mph 93 % 0 in
01:22 48.6 °F 46.6 °F 30.2 in SW 5 mph 11 mph 93 % 0 in
01:27 48.4 °F 46.4 °F 30.2 in WSW 6 mph 10 mph 93 % 0 in
01:32 48.4 °F 46.4 °F 30.2 in SW 3 mph 10 mph 93 % 0 in
01:37 48.4 °F 46.4 °F 30.2 in SW 4 mph 10 mph 93 % 0 in
01:42 48.4 °F 46.4 °F 30.2 in WSW 6 mph 10 mph 93 % 0 in
01:47 48.4 °F 46.4 °F 30.2 in SW 7 mph 9 mph 93 % 0 in
01:52 48.2 °F 46.2 °F 30.2 in WSW 4 mph 9 mph 93 % 0 in
01:57 48.2 °F 46.2 °F 30.2 in SW 5 mph 10 mph 93 % 0 in
02:02 48 °F 46.4 °F 30.2 in SW 4 mph 10 mph 94 % 0 in
02:07 48 °F 46.4 °F 30.2 in SW 5 mph 10 mph 94 % 0 in
02:12 48 °F 46.4 °F 30.2 in SW 4 mph 10 mph 94 % 0 in
02:17 47.8 °F 46.2 °F 30.2 in WSW 8 mph 10 mph 94 % 0 in
02:22 47.8 °F 46.2 °F 30.2 in SW 8 mph 10 mph 94 % 0 in
02:27 47.8 °F 46.2 °F 30.2 in SW 8 mph 10 mph 94 % 0 in
02:32 47.8 °F 46.2 °F 30.2 in SW 3 mph 10 mph 94 % 0 in
02:42 47.7 °F 46.2 °F 30.2 in SW 7 mph 10 mph 95 % 0 in
02:47 47.7 °F 46 °F 30.2 in SSW 3 mph 11 mph 94 % 0 in
02:52 47.7 °F 46.2 °F 30.2 in SW 3 mph 11 mph 95 % 0 in
02:57 47.7 °F 46 °F 30.2 in WSW 1 mph 10 mph 94 % 0 in
03:02 47.7 °F 46 °F 30.2 in West 6 mph 10 mph 94 % 0 in
03:07 47.7 °F 46 °F 30.2 in SW 2 mph 10 mph 94 % 0 in
03:12 47.7 °F 46 °F 30.2 in WSW 6 mph 10 mph 94 % 0 in
03:17 47.7 °F 46 °F 30.2 in SW 7 mph 10 mph 94 % 0 in
03:22 47.7 °F 46 °F 30.2 in WSW 7 mph 10 mph 94 % 0 in
03:27 47.7 °F 46 °F 30.2 in SW 6 mph 13 mph 94 % 0 in
03:32 47.7 °F 46 °F 30.2 in WSW 5 mph 13 mph 94 % 0 in
03:37 47.7 °F 46 °F 30.2 in SW 3 mph 13 mph 94 % 0 in
03:42 47.5 °F 45.5 °F 30.2 in WSW 4 mph 13 mph 93 % 0 in
03:47 47.5 °F 45.5 °F 30.2 in West 7 mph 11 mph 93 % 0 in
03:52 47.5 °F 45.5 °F 30.2 in WSW 5 mph 11 mph 93 % 0 in
03:57 47.5 °F 45.5 °F 30.2 in West 7 mph 10 mph 93 % 0 in
04:02 47.5 °F 45.3 °F 30.2 in WSW 7 mph 10 mph 92 % 0 in
04:07 47.5 °F 45 °F 30.2 in WSW 11 mph 14 mph 91 % 0 in
04:12 47.5 °F 45 °F 30.2 in WSW 6 mph 14 mph 91 % 0 in
04:17 47.3 °F 44.6 °F 30.2 in South 4 mph 14 mph 90 % 0 in
04:22 47.3 °F 44.2 °F 30.2 in WSW 7 mph 14 mph 89 % 0 in
04:27 47.3 °F 44.2 °F 30.2 in SW 5 mph 12 mph 89 % 0 in
04:32 47.3 °F 44.2 °F 30.2 in West 10 mph 12 mph 89 % 0 in
04:37 47.3 °F 43.9 °F 30.2 in SW 8 mph 13 mph 88 % 0 in
04:42 47.5 °F 43.9 °F 30.2 in SW 6 mph 13 mph 87 % 0 in
04:47 47.3 °F 43.9 °F 30.2 in WNW 5 mph 16 mph 88 % 0 in
04:52 47.3 °F 43.7 °F 30.2 in SW 5 mph 16 mph 87 % 0 in
04:57 47.3 °F 43.9 °F 30.2 in SW 6 mph 16 mph 88 % 0 in
05:02 47.3 °F 44.2 °F 30.2 in WSW 4 mph 16 mph 89 % 0 in
05:12 47.1 °F 44.4 °F 30.2 in SSW 3 mph 9 mph 90 % 0 in
05:17 46.9 °F 44.4 °F 30.2 in South 3 mph 9 mph 91 % 0 in
05:22 46.9 °F 44.4 °F 30.2 in SW 7 mph 9 mph 91 % 0 in
05:32 46.8 °F 44.6 °F 30.2 in WSW 5 mph 11 mph 92 % 0 in
05:42 46.8 °F 44.6 °F 30.2 in SSW 4 mph 12 mph 92 % 0 in
05:52 46.6 °F 44.6 °F 30.2 in WSW 5 mph 12 mph 93 % 0 in
05:57 46.6 °F 44.6 °F 30.2 in West 3 mph 9 mph 93 % 0 in
06:02 46.6 °F 44.6 °F 30.2 in SW 4 mph 9 mph 93 % 0 in
06:12 46.4 °F 44.4 °F 30.2 in SW 7 mph 10 mph 93 % 0 in
06:17 46.4 °F 44.4 °F 30.2 in SSW 3 mph 11 mph 93 % 0 in
06:22 46.4 °F 44.4 °F 30.2 in WSW 4 mph 11 mph 93 % 0 in
06:32 46.4 °F 44.8 °F 30.2 in SSW 5 mph 11 mph 94 % 0 in
06:42 46.4 °F 44.8 °F 30.2 in SW 5 mph 12 mph 94 % 0 in
06:47 46.4 °F 44.8 °F 30.2 in SW 8 mph 12 mph 94 % 0 in
06:52 46.4 °F 44.8 °F 30.2 in West 7 mph 12 mph 94 % 0 in
06:57 46.4 °F 44.8 °F 30.2 in WSW 4 mph 12 mph 94 % 0 in
07:02 46.4 °F 44.8 °F 30.2 in West 6 mph 12 mph 94 % 0 in
07:12 46.2 °F 44.2 °F 30.2 in WSW 6 mph 13 mph 93 % 0 in
07:17 46.2 °F 44.2 °F 30.2 in WSW 9 mph 13 mph 93 % 0 in
07:22 46.2 °F 44.2 °F 30.2 in SW 7 mph 13 mph 93 % 0 in
07:27 46.2 °F 44.2 °F 30.2 in SW 7 mph 11 mph 93 % 0 in
07:32 46.2 °F 44.2 °F 30.2 in WSW 3 mph 11 mph 93 % 0 in
07:42 46.2 °F 44.2 °F 30.2 in West 3 mph 11 mph 93 % 0 in
07:47 46.2 °F 44.2 °F 30.2 in WSW 6 mph 11 mph 93 % 0 in
07:57 46.2 °F 44.2 °F 30.2 in SW 7 mph 11 mph 93 % 0 in
08:02 46 °F 44.1 °F 30.2 in SW 3 mph 11 mph 93 % 0 in
08:12 46 °F 44.1 °F 30.2 in SW 5 mph 10 mph 93 % 0 in
08:17 46 °F 44.1 °F 30.2 in WSW 5 mph 9 mph 93 % 0 in
08:22 46 °F 44.1 °F 30.2 in WSW 6 mph 9 mph 93 % 0 in
08:32 46 °F 44.1 °F 30.2 in WSW 6 mph 9 mph 93 % 0 in
08:42 46 °F 43.9 °F 30.2 in SW 5 mph 9 mph 92 % 0 in
08:52 46 °F 43.9 °F 30.2 in SW 5 mph 8 mph 92 % 0 in
09:02 46 °F 43.9 °F 30.2 in SW 4 mph 10 mph 92 % 0 in
09:12 46 °F 43.9 °F 30.2 in SW 8 mph 13 mph 92 % 0 in
09:17 46 °F 43.9 °F 30.2 in SSW 3 mph 10 mph 92 % 0 in
09:22 46 °F 43.9 °F 30.2 in WSW 3 mph 10 mph 92 % 0 in
09:32 46 °F 43.9 °F 30.2 in SW 6 mph 9 mph 92 % 0 in
09:42 46 °F 43.9 °F 30.2 in SW 3 mph 10 mph 92 % 0 in
09:52 46 °F 43.9 °F 30.2 in SW 2 mph 10 mph 92 % 0 in
09:57 46 °F 43.9 °F 30.2 in SW 4 mph 8 mph 92 % 0 in
10:02 46 °F 43.9 °F 30.2 in SSW 7 mph 8 mph 92 % 0 in
10:12 46.2 °F 44.1 °F 30.2 in SW 4 mph 11 mph 92 % 0 in
10:17 46.2 °F 44.1 °F 30.2 in SW 3 mph 10 mph 92 % 0 in
10:22 46.2 °F 44.1 °F 30.2 in WSW 3 mph 10 mph 92 % 0 in
10:32 46.2 °F 44.1 °F 30.2 in SW 3 mph 10 mph 92 % 0 in
10:42 46.2 °F 44.1 °F 30.2 in SW 4 mph 10 mph 92 % 0 in
10:47 46.2 °F 44.1 °F 30.2 in WSW 4 mph 9 mph 92 % 0 in
10:52 46.2 °F 44.1 °F 30.2 in SW 4 mph 9 mph 92 % 0 in
11:02 46.2 °F 44.1 °F 30.2 in SW 4 mph 8 mph 92 % 0 in
11:12 46.4 °F 44.2 °F 30.2 in SW 6 mph 10 mph 92 % 0 in
11:17 46.2 °F 44.1 °F 30.2 in WSW 4 mph 10 mph 92 % 0 in
11:22 46.2 °F 44.2 °F 30.2 in WSW 5 mph 10 mph 93 % 0 in
11:32 46.4 °F 44.4 °F 30.2 in WSW 5 mph 9 mph 93 % 0 in
11:37 46.4 °F 44.4 °F 30.2 in WSW 3 mph 8 mph 93 % 0 in
11:42 46.4 °F 44.4 °F 30.2 in West 2 mph 8 mph 93 % 0 in
11:47 46.6 °F 44.6 °F 30.2 in SW 6 mph 9 mph 93 % 0 in
11:52 46.6 °F 44.4 °F 30.2 in West 5 mph 9 mph 92 % 0 in
11:57 46.6 °F 44.4 °F 30.2 in SW 7 mph 11 mph 92 % 0 in
12:02 46.8 °F 44.6 °F 30.2 in WSW 7 mph 11 mph 92 % 0 in
12:12 46.8 °F 44.6 °F 30.2 in WSW 5 mph 12 mph 92 % 0 in
12:17 46.9 °F 44.4 °F 30.2 in WSW 6 mph 12 mph 91 % 0 in
12:22 46.9 °F 44.4 °F 30.2 in SW 7 mph 12 mph 91 % 0 in
12:27 46.9 °F 44.4 °F 30.2 in WSW 3 mph 12 mph 91 % 0 in
12:32 47.1 °F 44.6 °F 30.2 in WSW 7 mph 12 mph 91 % 0 in
12:37 47.1 °F 44.4 °F 30.2 in SW 6 mph 12 mph 90 % 0 in
12:42 47.3 °F 44.8 °F 30.2 in SSW 7 mph 12 mph 91 % 0 in
12:47 47.3 °F 44.6 °F 30.2 in WSW 6 mph 11 mph 90 % 0 in
12:52 47.3 °F 44.6 °F 30.2 in SW 5 mph 11 mph 90 % 0 in
12:57 47.3 °F 44.6 °F 30.2 in West 5 mph 11 mph 90 % 0 in
13:02 47.3 °F 44.6 °F 30.2 in West 5 mph 11 mph 90 % 0 in
13:07 47.5 °F 44.8 °F 30.2 in West 4 mph 14 mph 90 % 0 in
13:12 47.5 °F 44.8 °F 30.2 in WSW 6 mph 14 mph 90 % 0 in
13:17 47.7 °F 44.6 °F 30.2 in WSW 8 mph 14 mph 89 % 0 in
13:22 47.7 °F 44.6 °F 30.2 in WSW 8 mph 14 mph 89 % 0 in
13:27 47.7 °F 44.6 °F 30.2 in WSW 7 mph 13 mph 89 % 0 in
13:32 47.8 °F 44.8 °F 30.2 in WSW 6 mph 13 mph 89 % 0 in
13:37 48 °F 44.6 °F 30.2 in SW 4 mph 17 mph 88 % 0 in
13:42 48.4 °F 45 °F 30.2 in WSW 10 mph 17 mph 88 % 0 in
13:47 48.6 °F 44.8 °F 30.2 in SW 9 mph 16 mph 87 % 0 in
13:52 48.4 °F 44.8 °F 30.2 in SSW 9 mph 16 mph 87 % 0 in
13:57 48.4 °F 44.8 °F 30.2 in WSW 7 mph 14 mph 87 % 0 in
14:02 48.4 °F 44.8 °F 30.2 in SW 5 mph 14 mph 87 % 0 in
14:12 48.6 °F 44.8 °F 30.2 in West 6 mph 17 mph 87 % 0 in
14:17 48.7 °F 44.8 °F 30.2 in SW 3 mph 15 mph 86 % 0 in
14:22 48.7 °F 44.8 °F 30.2 in SW 5 mph 15 mph 86 % 0 in
14:32 48.6 °F 44.2 °F 30.2 in SW 12 mph 15 mph 85 % 0 in
14:42 48.7 °F 44.8 °F 30.2 in SSW 3 mph 19 mph 86 % 0 in
14:47 48.7 °F 44.8 °F 30.2 in SW 10 mph 14 mph 86 % 0 in
14:52 48.7 °F 44.4 °F 30.1 in West 9 mph 14 mph 85 % 0 in
15:02 48.9 °F 44.6 °F 30.1 in WSW 7 mph 16 mph 85 % 0 in
15:07 48.9 °F 44.6 °F 30.1 in West 10 mph 15 mph 85 % 0 in
15:12 49.1 °F 44.4 °F 30.1 in SW 9 mph 15 mph 84 % 0 in
15:17 49.3 °F 44.6 °F 30.1 in WSW 5 mph 20 mph 84 % 0 in
15:22 49.3 °F 44.6 °F 30.1 in WSW 8 mph 20 mph 84 % 0 in
15:27 49.5 °F 44.8 °F 30.1 in SW 8 mph 20 mph 84 % 0 in
15:32 49.5 °F 44.8 °F 30.1 in SW 10 mph 20 mph 84 % 0 in
15:37 49.5 °F 44.8 °F 30.1 in West 7 mph 17 mph 84 % 0 in
15:42 49.5 °F 44.8 °F 30.1 in SW 6 mph 17 mph 84 % 0 in
15:47 49.5 °F 44.8 °F 30.1 in WSW 12 mph 19 mph 84 % 0 in
15:52 49.5 °F 44.8 °F 30.1 in WSW 4 mph 19 mph 84 % 0 in
15:57 49.5 °F 44.8 °F 30.1 in SW 4 mph 15 mph 84 % 0 in
16:02 49.5 °F 44.8 °F 30.1 in WSW 6 mph 15 mph 84 % 0 in
16:07 49.5 °F 44.8 °F 30.1 in WSW 9 mph 14 mph 84 % 0 in
16:12 49.5 °F 44.8 °F 30.1 in SW 6 mph 14 mph 84 % 0 in
16:17 49.6 °F 44.8 °F 30.1 in SSW 3 mph 15 mph 83 % 0 in
16:22 49.6 °F 44.8 °F 30.1 in SSW 3 mph 15 mph 83 % 0 in
16:32 49.6 °F 44.8 °F 30.1 in WSW 6 mph 15 mph 83 % 0 in
16:37 49.5 °F 44.6 °F 30.1 in SW 8 mph 15 mph 83 % 0 in
16:42 49.5 °F 44.6 °F 30.1 in West 6 mph 15 mph 83 % 0 in
16:47 49.5 °F 44.6 °F 30.1 in West 10 mph 14 mph 83 % 0 in
16:52 49.5 °F 44.8 °F 30.1 in SSW 4 mph 14 mph 84 % 0 in
16:57 49.5 °F 44.6 °F 30.1 in West 3 mph 15 mph 83 % 0 in
17:02 49.5 °F 44.6 °F 30.1 in WSW 6 mph 15 mph 83 % 0 in
17:07 49.5 °F 44.8 °F 30.1 in SSW 4 mph 12 mph 84 % 0 in
17:12 49.5 °F 44.8 °F 30.1 in SW 3 mph 12 mph 84 % 0 in
17:17 49.3 °F 44.6 °F 30.1 in SW 3 mph 12 mph 84 % 0 in
17:22 49.3 °F 44.6 °F 30.1 in SW 7 mph 12 mph 84 % 0 in
17:27 49.3 °F 44.6 °F 30.1 in SW 10 mph 13 mph 84 % 0 in
17:32 49.3 °F 44.6 °F 30.1 in SW 11 mph 13 mph 84 % 0 in
17:37 49.3 °F 44.6 °F 30.1 in WSW 10 mph 13 mph 84 % 0 in
17:42 49.3 °F 44.6 °F 30.1 in SW 10 mph 13 mph 84 % 0 in
17:47 49.3 °F 44.6 °F 30.1 in SW 6 mph 13 mph 84 % 0 in
17:52 49.3 °F 44.6 °F 30.1 in WSW 6 mph 13 mph 84 % 0 in
17:57 49.1 °F 44.4 °F 30.1 in SW 6 mph 14 mph 84 % 0 in
18:02 49.1 °F 44.4 °F 30.1 in SW 4 mph 14 mph 84 % 0 in
18:07 49.1 °F 44.4 °F 30.1 in SW 6 mph 15 mph 84 % 0 in
18:12 48.9 °F 44.2 °F 30.1 in West 6 mph 15 mph 84 % 0 in
18:17 48.9 °F 44.2 °F 30.1 in West 4 mph 15 mph 84 % 0 in
18:22 48.9 °F 44.2 °F 30.1 in WSW 7 mph 13 mph 84 % 0 in
18:27 48.9 °F 44.2 °F 30.1 in SW 7 mph 13 mph 84 % 0 in
18:32 48.7 °F 44.1 °F 30.1 in SW 5 mph 12 mph 84 % 0 in
18:37 48.7 °F 44.1 °F 30.1 in SW 12 mph 12 mph 84 % 0 in
18:42 48.7 °F 44.1 °F 30.1 in SW 3 mph 12 mph 84 % 0 in
18:47 48.7 °F 44.1 °F 30.1 in SW 10 mph 14 mph 84 % 0 in
18:52 48.6 °F 43.9 °F 30.1 in SW 8 mph 14 mph 84 % 0 in
18:57 48.6 °F 43.9 °F 30.1 in SW 9 mph 14 mph 84 % 0 in
19:02 48.6 °F 43.9 °F 30.1 in SW 9 mph 14 mph 84 % 0 in
19:07 48.6 °F 43.9 °F 30.1 in WSW 10 mph 13 mph 84 % 0 in
19:12 48.6 °F 43.9 °F 30.1 in SW 8 mph 13 mph 84 % 0 in
19:17 48.6 °F 43.9 °F 30.1 in SW 5 mph 14 mph 84 % 0 in
19:22 48.4 °F 43.7 °F 30.1 in WSW 8 mph 14 mph 84 % 0 in
19:32 48.4 °F 43.7 °F 30.1 in South 6 mph 13 mph 84 % 0 in
19:37 48.4 °F 43.7 °F 30.1 in WSW 8 mph 13 mph 84 % 0 in
19:42 48.4 °F 43.7 °F 30.1 in SSW 7 mph 13 mph 84 % 0 in
19:47 48.4 °F 43.7 °F 30.1 in SW 5 mph 13 mph 84 % 0 in
19:57 48.4 °F 43.7 °F 30.1 in WSW 9 mph 12 mph 84 % 0 in
20:02 48.2 °F 43.9 °F 30.1 in SSW 4 mph 12 mph 85 % 0 in
20:12 48.2 °F 43.9 °F 30.1 in West 8 mph 14 mph 85 % 0 in
20:17 48 °F 43.7 °F 30.1 in WSW 8 mph 12 mph 85 % 0 in
20:22 48 °F 43.3 °F 30.1 in WSW 7 mph 12 mph 84 % 0 in
20:27 48 °F 43.3 °F 30.1 in SW 5 mph 11 mph 84 % 0 in
20:32 48 °F 43.3 °F 30.1 in WSW 5 mph 11 mph 84 % 0 in
20:37 48 °F 43.3 °F 30.1 in SW 2 mph 13 mph 84 % 0 in
20:42 48 °F 43.3 °F 30.1 in WSW 5 mph 13 mph 84 % 0 in
20:47 48 °F 43.3 °F 30.1 in SW 10 mph 11 mph 84 % 0 in
20:52 48 °F 43.3 °F 30.1 in SW 2 mph 11 mph 84 % 0 in
20:57 48 °F 43.7 °F 30.1 in SSW 6 mph 11 mph 85 % 0 in
21:02 48 °F 43.7 °F 30.1 in WSW 5 mph 11 mph 85 % 0 in
21:07 47.8 °F 43.5 °F 30.1 in SW 6 mph 10 mph 85 % 0 in
21:12 47.8 °F 43.5 °F 30.1 in SW 6 mph 10 mph 85 % 0 in
21:17 47.8 °F 43.5 °F 30.1 in SSW 4 mph 12 mph 85 % 0 in
21:22 47.8 °F 43.5 °F 30.1 in WSW 7 mph 12 mph 85 % 0 in
21:27 47.8 °F 43.5 °F 30.1 in WSW 6 mph 12 mph 85 % 0 in
21:32 47.8 °F 43.5 °F 30.1 in WSW 6 mph 12 mph 85 % 0 in
21:37 47.8 °F 43.2 °F 30.1 in West 6 mph 13 mph 84 % 0 in
21:42 47.8 °F 43.2 °F 30.1 in SW 8 mph 13 mph 84 % 0 in
21:47 47.8 °F 43.5 °F 30.1 in West 4 mph 15 mph 85 % 0 in
21:52 47.7 °F 43.3 °F 30.1 in SW 7 mph 15 mph 85 % 0 in
22:02 47.7 °F 43.7 °F 30.1 in WSW 10 mph 11 mph 86 % 0 in
22:07 47.7 °F 43.3 °F 30.1 in SW 2 mph 12 mph 85 % 0 in
22:12 47.7 °F 43.3 °F 30.1 in WSW 6 mph 12 mph 85 % 0 in
22:17 47.7 °F 43.7 °F 30.1 in WSW 5 mph 14 mph 86 % 0 in
22:22 47.7 °F 43.7 °F 30.1 in WSW 9 mph 14 mph 86 % 0 in
22:27 47.7 °F 43.7 °F 30.1 in SW 7 mph 13 mph 86 % 0 in
22:32 47.5 °F 43.5 °F 30.1 in WSW 8 mph 13 mph 86 % 0 in
22:37 47.5 °F 43.9 °F 30.1 in SW 3 mph 11 mph 87 % 0 in
22:42 47.5 °F 43.9 °F 30.1 in SW 7 mph 11 mph 87 % 0 in
22:47 47.5 °F 43.9 °F 30.1 in SW 5 mph 12 mph 87 % 0 in
22:52 47.5 °F 43.9 °F 30.1 in WSW 6 mph 12 mph 87 % 0 in
22:57 47.5 °F 43.9 °F 30.1 in SW 8 mph 13 mph 87 % 0 in
23:02 47.3 °F 43.7 °F 30.1 in SW 7 mph 13 mph 87 % 0 in
23:12 47.1 °F 43.7 °F 30.1 in SSW 5 mph 13 mph 88 % 0 in
23:17 47.1 °F 43.5 °F 30.1 in WSW 6 mph 12 mph 87 % 0 in
23:22 47.1 °F 43.5 °F 30.1 in SW 6 mph 12 mph 87 % 0 in
23:32 47.1 °F 43.5 °F 30.1 in SSW 2 mph 12 mph 87 % 0 in
23:37 47.1 °F 43.5 °F 30.1 in SSW 5 mph 11 mph 87 % 0 in
23:42 47.1 °F 43.7 °F 30.1 in SSE 3 mph 11 mph 88 % 0 in
23:47 46.9 °F 43.5 °F 30.1 in SW 4 mph 9 mph 88 % 0 in
23:52 47.1 °F 43.7 °F 30.1 in SW 5 mph 9 mph 88 % 0 in
Meteo18
Compliments of Weather Underground - 4 mb

Script developed by  Jim McMurry - jmcmurry@mwt.net Adapted for the template by  Wim van der Kuil - Leuven-Template.eu

You find our weather info also at:

European Weather Network

Weather Underground

Equipment we use:

Weather-station
Davis Vue

Weather-program
Meteohub

Weather-server
Raspberry PI 2 B+

Provider
1 and 1

Davis Vue

Meteohub

Raspberry PI 2 B+

1 and 1